CZ-6A DEB, 61159

Orbit data source: Space-Track

CZ-6A DEB, 61159 is space debris in LEO originally from a launch on Tue, 06 Aug 2024 UTC launched from the Taiyaun Space Center, China (TSC). Debris objects in space refer to the collection of defunct objects orbiting the Earth. Examples of debris include non-operational satellites, rocket bodies, and fragments generated from explosions, collisions, or faulty payload assembly.

Loading next visibility...
Identifier
61159, 2024-140RD
Orbit
LEO
Country
Flag of CNCN / PRC
Related business
Manufacturer
SAST
Mission
Spacecraft
Bus & Motor
Unknown
Mass
Unknown
Launch date (UTC)
2024-08-06 (2 years ago)
Launch vehicle
Unknown
Launch site
Taiyaun Space Center, China (TSC)
Object type
Payload
Rocket body
Debris
Shape & HBR
Unknown shape, 0.1 m
Radar Cross Section
Small (<0.1 m²)

Expand to show TLE details & history
Last TLE update: 4 hours ago

TLE from 4 hours ago
0 CZ-6A DEB
1 61159U 24140RD  26118.84912035  .00001720  00000-0  48741-3 0  9990
2 61159  88.9592 274.7171 0058398 108.6084 252.1474 14.44122176 88681
Epoch: 2026-04-28T20:22Z
TLE epoch observation values (Epoch: 2026-04-28T20:22:43.998Z)
Latitude
0.00001°
Longitude
112.21524°
Altitude
760.974 km
Speed
7.467 km/s
True Right ascension
18h 18m 52s
True Declination
0° 00' 00"
Sunlit
Object was in full shadow at epoch
Visualization orbit readout
Latitude
Unknown
Longitude
Unknown
Altitude
Unknown
Speed
Unknown
Apparent Right ascension
Unknown
Apparent Declination
Unknown
Sunlit
N/A
Visualization observer readout
Local Sidereal Time
08:19:49
Azimuth
Unknown
Elevation
Unknown
Doppler factor
Unknown
Orbital elements
Apogee altitude
783.407 km
Perigee altitude
700.249 km
Semi-major axis
7,119.965 km
Eccentricity
0.00584
Inclination
88.9592°
RAAN
274.7171°
Arg. of periapsis
108.6084°
True anomaly
251.51187°
Mean anomaly
252.1474°
Eccentric anomaly
251.82949°
Mean motion
3.61265 °/min
Orbital period
99.65 mins
BSTAR
0.00048741
Loading maneuver chart data...
Computing Atmospheric mass density...
Loading historical data...
Loading historical data...
Loading historical data...
Loading historical data...
Loading historical data...
Loading historical data...
Loading historical data...

Documentation

Showing up to 5 results
|